User: anonymous   Login
Location: Unspecified
(0.0000°N, 0.0000°E)
Time: 11:02:49
(UTC+00:00)
Language:

TIANWANG 1C (TW-1C) - Orbit

View from above orbital plane
View from above orbital plane
View from above satellite
View from above satellite

Ground track
Ground track

The orbit data is extracted from the following two-line orbital elements,

1 40926U 15051B   17352.09304884  .00007729  00000-0  15898-3 0  9996
2 40926  97.2082  30.4019 0009408 212.4461 230.6733 15.46192859125304
Epoch (UTC): 18 December 2017 02:13:59
Eccentricity: 0.0009408
inclination: 97.2082°
perigee height: 421 km
apogee height: 434 km
right ascension of ascending node: 30.4019°
argument of perigee: 212.4461°
revolutions per day: 15.46192859
mean anomaly at epoch: 230.6733°
orbit number at epoch: 12530

The dashed part of the orbit path shows where the satellite is in the earth's shadow,  

DLR